• en Belgique
  • Liste des pays
  • À 7 jours
  • Température de l'eau
  • Carte satellitaire
  • Carte météo
  • Widgets météo
  • user-avatar
    Se connecter

    Météo par heure à Bilzen

    Ce jour, 19 Février, Lundi

    Heure Température Précipitation Vent Pression Humidité
    00:00 -2°C° 0 mm 2 m/s 761 mmHg 82%
    01:00 -2°C° 0 mm 2 m/s 761 mmHg 81%
    02:00 -2°C° 0 mm 2 m/s 761 mmHg 80%
    03:00 -2°C° 0 mm 2 m/s 760 mmHg 80%
    04:00 -2°C° 0 mm 2 m/s 760 mmHg 78%
    05:00 -1°C° 0 mm 2 m/s 760 mmHg 75%
    06:00 -1°C° 0 mm 2 m/s 760 mmHg 73%
    07:00 +1°C° 0 mm 2 m/s 759 mmHg 69%
    08:00 +1°C° 0 mm 2 m/s 759 mmHg 66%
    09:00 +2°C° 0 mm 2 m/s 759 mmHg 62%
    10:00 +3°C° 0 mm 2 m/s 759 mmHg 58%
    11:00 +4°C° 0 mm 2 m/s 758 mmHg 54%
    12:00 +5°C° 0 mm 2 m/s 758 mmHg 51%
    13:00 +7°C° 0 mm 1 m/s 758 mmHg 51%
    14:00 +7°C° 0 mm 1 m/s 757 mmHg 52%
    15:00 +7°C° 0 mm 1 m/s 757 mmHg 53%
    16:00 +6°C° 0 mm 1 m/s 757 mmHg 56%
    17:00 +5°C° 0 mm 1 m/s 757 mmHg 60%
    18:00 +4°C° 0 mm 1 m/s 757 mmHg 64%
    19:00 +4°C° 0 mm 1 m/s 757 mmHg 66%
    20:00 +4°C° 0 mm 1 m/s 757 mmHg 67%
    21:00 +4°C° 0 mm 1 m/s 757 mmHg 69%
    22:00 +3°C° 0 mm 1 m/s 757 mmHg 71%
    23:00 +3°C° 0 mm 1 m/s 757 mmHg 72%

    Demain, 20 Février, Mardi

    Heure Température Précipitation Vent Pression Humidité
    00:00 +3°C° 0 mm 1 m/s 757 mmHg 74%
    01:00 +2°C° 0 mm 1 m/s 757 mmHg 75%
    02:00 +2°C° 0 mm 1 m/s 757 mmHg 77%
    03:00 +1°C° 0 mm 1 m/s 756 mmHg 78%
    04:00 +1°C° 0 mm 1 m/s 757 mmHg 79%
    05:00 +1°C° 0 mm 1 m/s 757 mmHg 79%
    06:00 0°C° 0 mm 1 m/s 757 mmHg 79%
    07:00 +1°C° 0 mm 1 m/s 757 mmHg 74%
    08:00 +3°C° 0 mm 1 m/s 757 mmHg 69%
    09:00 +4°C° 0 mm 1 m/s 758 mmHg 64%
    10:00 +4°C° 0 mm 2 m/s 758 mmHg 60%
    11:00 +5°C° 0 mm 2 m/s 758 mmHg 55%
    12:00 +6°C° 0 mm 2 m/s 758 mmHg 51%
    13:00 +6°C° 0 mm 2 m/s 758 mmHg 51%
    14:00 +5°C° 0 mm 3 m/s 758 mmHg 52%
    15:00 +5°C° 0 mm 3 m/s 758 mmHg 52%
    16:00 +4°C° 0 mm 3 m/s 758 mmHg 57%
    17:00 +2°C° 0 mm 3 m/s 758 mmHg 63%
    18:00 +1°C° 0 mm 3 m/s 759 mmHg 68%
    19:00 0°C° 0 mm 3 m/s 759 mmHg 70%
    20:00 0°C° 0 mm 3 m/s 760 mmHg 71%
    21:00 -1°C° 0 mm 3 m/s 760 mmHg 73%
    22:00 -1°C° 0 mm 3 m/s 761 mmHg 75%
    23:00 -1°C° 0 mm 3 m/s 761 mmHg 77%

    Après-demain, 21 Février, Mercredi

    Heure Température Précipitation Vent Pression Humidité
    00:00 -2°C° 0 mm 3 m/s 762 mmHg 79%
    01:00 -2°C° 0 mm 2 m/s 762 mmHg 80%
    02:00 -2°C° 0 mm 2 m/s 762 mmHg 81%
    03:00 -2°C° 0 mm 2 m/s 762 mmHg 82%
    04:00 -3°C° 0 mm 2 m/s 762 mmHg 83%
    05:00 -3°C° 0 mm 2 m/s 762 mmHg 83%
    06:00 -3°C° 0 mm 2 m/s 762 mmHg 83%
    07:00 -2°C° 0 mm 2 m/s 763 mmHg 78%
    08:00 -1°C° 0 mm 3 m/s 763 mmHg 72%
    09:00 0°C° 0 mm 3 m/s 763 mmHg 66%
    10:00 +2°C° 0 mm 3 m/s 763 mmHg 60%
    11:00 +3°C° 0 mm 3 m/s 762 mmHg 55%
    12:00 +4°C° 0 mm 3 m/s 762 mmHg 49%
    13:00 +4°C° 0 mm 4 m/s 762 mmHg 49%
    14:00 +4°C° 0 mm 4 m/s 761 mmHg 50%
    15:00 +4°C° 0 mm 4 m/s 761 mmHg 50%
    16:00 +1°C° 0 mm 4 m/s 761 mmHg 56%
    17:00 +1°C° 0 mm 3 m/s 761 mmHg 61%
    18:00 -1°C° 0 mm 3 m/s 761 mmHg 67%
    19:00 -1°C° 0 mm 3 m/s 761 mmHg 69%
    20:00 -1°C° 0 mm 3 m/s 761 mmHg 70%
    21:00 -2°C° 0 mm 3 m/s 761 mmHg 71%
    22:00 -2°C° 0 mm 3 m/s 761 mmHg 72%
    23:00 -2°C° 0 mm 3 m/s 761 mmHg 73%

    22 Février, Jeudi

    Heure Température Précipitation Vent Pression Humidité
    00:00 -2°C° 0 mm 3 m/s 761 mmHg 74%
    01:00 -2°C° 0 mm 3 m/s 761 mmHg 75%
    02:00 -2°C° 0 mm 3 m/s 761 mmHg 75%
    03:00 -4°C° 0 mm 3 m/s 760 mmHg 75%
    04:00 -4°C° 0 mm 3 m/s 760 mmHg 76%
    05:00 -4°C° 0 mm 4 m/s 760 mmHg 76%
    06:00 -4°C° 0 mm 4 m/s 760 mmHg 76%
    07:00 -3°C° 0 mm 4 m/s 761 mmHg 71%
    08:00 -2°C° 0 mm 5 m/s 761 mmHg 66%
    09:00 -1°C° 0 mm 5 m/s 761 mmHg 60%
    10:00 -1°C° 0 mm 6 m/s 760 mmHg 54%
    11:00 +1°C° 0 mm 6 m/s 760 mmHg 47%
    12:00 +2°C° 0 mm 7 m/s 760 mmHg 41%
    13:00 +2°C° 0 mm 7 m/s 760 mmHg 41%
    14:00 +2°C° 0 mm 7 m/s 759 mmHg 41%
    15:00 +2°C° 0 mm 7 m/s 759 mmHg 42%
    16:00 +1°C° 0 mm 6 m/s 759 mmHg 47%
    17:00 -1°C° 0 mm 6 m/s 759 mmHg 52%
    18:00 -1°C° 0 mm 5 m/s 760 mmHg 57%
    19:00 -2°C° 0 mm 5 m/s 760 mmHg 60%
    20:00 -2°C° 0 mm 5 m/s 760 mmHg 62%
    21:00 -4°C° 0 mm 5 m/s 760 mmHg 65%
    22:00 -4°C° 0 mm 5 m/s 760 mmHg 67%
    23:00 -4°C° 0 mm 5 m/s 760 mmHg 69%

    23 Février, Vendredi

    Heure Température Précipitation Vent Pression Humidité
    00:00 -4°C° 0 mm 5 m/s 760 mmHg 71%
    01:00 -4°C° 0 mm 5 m/s 760 mmHg 72%
    02:00 -5°C° 0 mm 5 m/s 760 mmHg 72%
    03:00 -5°C° 0 mm 5 m/s 760 mmHg 73%
    04:00 -5°C° 0 mm 5 m/s 760 mmHg 72%
    05:00 -5°C° 0 mm 5 m/s 760 mmHg 70%
    06:00 -5°C° 0 mm 5 m/s 760 mmHg 69%
    07:00 -5°C° 0 mm 6 m/s 760 mmHg 62%
    08:00 -4°C° 0 mm 6 m/s 760 mmHg 55%
    09:00 -3°C° 0 mm 6 m/s 761 mmHg 48%
    10:00 -2°C° 0 mm 6 m/s 760 mmHg 44%
    11:00 -1°C° 0 mm 7 m/s 760 mmHg 40%
    12:00 0°C° 0 mm 7 m/s 760 mmHg 36%
    13:00 0°C° 0 mm 7 m/s 760 mmHg 36%
    14:00 0°C° 0 mm 7 m/s 760 mmHg 36%
    15:00 +2°C° 0 mm 7 m/s 760 mmHg 36%
    16:00 -1°C° 0 mm 6 m/s 760 mmHg 40%
    17:00 -2°C° 0 mm 6 m/s 760 mmHg 44%
    18:00 -2°C° 0 mm 5 m/s 761 mmHg 48%
    19:00 -2°C° 0 mm 5 m/s 761 mmHg 50%
    20:00 -4°C° 0 mm 5 m/s 762 mmHg 52%
    21:00 -4°C° 0 mm 5 m/s 762 mmHg 54%
    22:00 -5°C° 0 mm 5 m/s 762 mmHg 52%
    23:00 -5°C° 0 mm 5 m/s 763 mmHg 51%

    24 Février, Samedi

    Heure Température Précipitation Vent Pression Humidité
    00:00 -5°C° 0 mm 5 m/s 763 mmHg 50%
    01:00 -5°C° 0 mm 5 m/s 763 mmHg 48%
    02:00 -5°C° 0 mm 5 m/s 763 mmHg 46%
    03:00 -5°C° 0 mm 5 m/s 763 mmHg 44%
    04:00 -6°C° 0 mm 5 m/s 763 mmHg 41%
    05:00 -6°C° 0 mm 5 m/s 764 mmHg 39%
    06:00 -6°C° 0 mm 5 m/s 764 mmHg 37%
    07:00 -5°C° 0 mm 6 m/s 764 mmHg 35%
    08:00 -4°C° 0 mm 6 m/s 765 mmHg 32%
    09:00 -3°C° 0 mm 7 m/s 765 mmHg 29%
    10:00 -2°C° 0 mm 7 m/s 765 mmHg 29%
    11:00 -1°C° 0 mm 7 m/s 765 mmHg 29%
    12:00 0°C° 0 mm 7 m/s 765 mmHg 28%
    13:00 0°C° 0 mm 7 m/s 765 mmHg 29%
    14:00 0°C° 0 mm 7 m/s 764 mmHg 30%
    15:00 0°C° 0 mm 7 m/s 764 mmHg 32%
    16:00 -1°C° 0 mm 6 m/s 765 mmHg 35%
    17:00 -2°C° 0 mm 6 m/s 765 mmHg 39%
    18:00 -2°C° 0 mm 5 m/s 765 mmHg 42%
    19:00 -4°C° 0 mm 5 m/s 766 mmHg 44%
    20:00 -4°C° 0 mm 5 m/s 766 mmHg 47%
    21:00 -5°C° 0 mm 5 m/s 766 mmHg 49%
    22:00 -5°C° 0 mm 5 m/s 766 mmHg 52%
    23:00 -5°C° 0 mm 5 m/s 766 mmHg 54%
    Voir plus